Miscellaneous Local Product
Issued by NWS Hastings, NE

Home | Current Version | Previous Version | Graphics & Text | Print | Product List | Glossary On
Versions: 1 2 3 4 5 6 7 8 9 10 11 12 13 14 15 16 17 18 19 20 21 22 23 24 25 26 27 28 29 30 31 32 33 34 35 36 37 38 39 40 41 42 43 44 45 46 47 48 49 50
000
AXUS43 KGID 240102
MISGRI

GID CWA HOURLY WEATHER ROUNDUP
NATIONAL WEATHER SERVICE HASTINGS NE
800 PM CDT THU OCT 23 2014

NOTE: "FAIR" INDICATES FEW OR NO CLOUDS BELOW 12,000 FEET WITH NO
SIGNIFICANT WEATHER AND/OR OBSTRUCTIONS TO VISIBILITY.

...SOUTH CENTRAL NEBRASKA...

CITY           SKY/WX    TMP DP  RH WIND       PRES   REMARKS
GRAND ISLAND   MOCLDY    57  54  89 S8        30.02S
HASTINGS       MOCLDY    56  53  90 SW3       30.04R FOG
KEARNEY        MOCLDY    54  52  94 SE9       30.03S
ORD            CLOUDY    59  54  83 S6        29.97S
YORK           CLOUDY    57  55  94 SW6       30.03R
AURORA         MOCLDY    56  55  95 CALM      30.03R
LEXINGTON      MOCLDY    57  54  88 SE5       30.00S
HOLDREGE       MOCLDY    54  52  94 CALM      30.02S FOG
HEBRON         MOCLDY    57  54  88 CALM      30.03S

...NEBRASKA PANHANDLE...

CITY           SKY/WX    TMP DP  RH WIND       PRES   REMARKS
CHADRON        MOCLDY    53  39  59 SW3       29.93R
ALLIANCE       PTCLDY    51  32  48 SW9       29.98R
SCOTTSBLUFF    PTCLDY    58  34  40 SW3       30.00R
SIDNEY         CLEAR     52  36  54 SW10      30.04S

...WESTERN AND NORTH CENTRAL NEBRASKA...

CITY           SKY/WX    TMP DP  RH WIND       PRES   REMARKS
VALENTINE      MOCLDY    59  35  40 CALM      29.92R
AINSWORTH      CLOUDY    54  44  69 S8        29.94R
ONEILL         CLOUDY    61  53  73 S9        29.95S
BROKEN BOW     CLOUDY    61  52  72 S9        29.98S
IMPERIAL       PTCLDY    61  37  41 S7        30.01S
NORTH PLATTE   PTCLDY    61  45  55 S8        29.99R
MCCOOK         PTCLDY    64  54  69 VRB6G16   30.01S

...EASTERN NEBRASKA...

CITY           SKY/WX    TMP DP  RH WIND       PRES   REMARKS
NORFOLK        PTCLDY    59  51  75 S7        29.99S
SO SIOUX CITY  PTCLDY    57  46  66 SE3       30.00R
TEKAMAH        CLEAR     55  49  80 SW6       30.01R
COLUMBUS       MOCLDY    61  48  63 S6        30.03R
ALBION         CLOUDY    57  52  84 S7        30.00S
OMAHA EPPLEY   PTCLDY    60  50  69 SE3       30.02R
OFFUTT AFB     CLEAR     53  53  99 CALM      30.02R
MILLARD        CLEAR     57  53  88 CALM      30.02R
LINCOLN        PTCLDY    58  51  78 S3        30.03R
NEBRASKA CITY  CLEAR     64  43  46 CALM      30.04R
BEATRICE       PTCLDY    60  52  74 S3        30.03S
FALLS CITY     CLEAR     63  51  65 S6        30.04R

...NORTHERN KANSAS...

CITY           SKY/WX    TMP DP  RH WIND       PRES   REMARKS
GOODLAND       CLEAR     58  52  80 S12       30.08R
HILL CITY      MOCLDY    62  56  80 S3        30.05R
NORTON         CLEAR     63  52  67 S8        30.03S
PHILLIPSBURG   CLEAR     57  57 100 NE5       30.05S FOG
SMITH CENTER   CLEAR     54  54 100 E6        30.05S FOG
BELOIT         CLEAR     57  57 100 CALM      30.03S
HAYS           CLOUDY    64  55  72 S6        30.06R
RUSSELL        MOCLDY    62  57  83 S8        30.04R
CONCORDIA      MOCLDY    63  55  75 CALM      30.04R
SALINA         PTCLDY    63  59  87 S8        30.05R
TOPEKA         PTCLDY    62  61  96 CALM      30.07R



USA.gov is the U.S. government's official web portal to all federal, state and local government web resources and services.